TimeCDT,TemperatureF,Dew PointF,Humidity,Sea Level PressureIn,VisibilityMPH,Wind Direction,Wind SpeedMPH,Gust SpeedMPH,PrecipitationIn,Events,Conditions,WindDirDegrees,DateUTC
12:15 AM,71.6,60.8,69,30.06,10.0,NE,3.5,-,N/A,,Clear,50,2013-09-16 05:15:00
12:58 AM,71.6,62.6,73,30.07,10.0,East,4.6,-,N/A,,Clear,80,2013-09-16 05:58:00
1:19 AM,71.6,62.6,73,30.06,10.0,ENE,4.6,-,N/A,,Clear,70,2013-09-16 06:19:00
1:37 AM,71.6,62.6,73,30.06,10.0,ENE,3.5,-,N/A,,Clear,70,2013-09-16 06:37:00
2:15 AM,69.8,60.8,73,30.06,10.0,East,3.5,-,N/A,,Clear,90,2013-09-16 07:15:00
2:55 AM,69.8,60.8,73,30.05,10.0,ENE,5.8,-,N/A,,Clear,70,2013-09-16 07:55:00
2:58 AM,69.8,62.6,78,30.05,10.0,ENE,5.8,-,N/A,,Clear,70,2013-09-16 07:58:00
3:15 AM,69.8,60.8,73,30.05,10.0,East,6.9,-,N/A,,Clear,90,2013-09-16 08:15:00
3:35 AM,69.8,60.8,73,30.05,10.0,East,5.8,-,N/A,,Clear,80,2013-09-16 08:35:00
3:55 AM,69.8,60.8,73,30.05,10.0,East,5.8,-,N/A,,Clear,80,2013-09-16 08:55:00
4:15 AM,69.8,59.0,68,30.05,10.0,East,5.8,-,N/A,,Clear,80,2013-09-16 09:15:00
4:35 AM,69.8,59.0,68,30.05,10.0,East,8.1,-,N/A,,Clear,80,2013-09-16 09:35:00
4:55 AM,69.8,59.0,68,30.05,10.0,ENE,5.8,-,N/A,,Clear,70,2013-09-16 09:55:00
5:15 AM,68.0,59.0,73,30.06,10.0,East,5.8,-,N/A,,Clear,80,2013-09-16 10:15:00
5:35 AM,68.0,59.0,73,30.06,10.0,East,5.8,-,N/A,,Clear,80,2013-09-16 10:35:00
5:55 AM,68.0,59.0,73,30.07,10.0,ENE,5.8,-,N/A,,Clear,70,2013-09-16 10:55:00
6:15 AM,68.0,59.0,73,30.07,10.0,ENE,5.8,-,N/A,,Clear,70,2013-09-16 11:15:00
6:35 AM,68.0,57.2,68,30.07,10.0,ENE,6.9,-,N/A,,Clear,70,2013-09-16 11:35:00
7:15 AM,68.0,55.4,64,30.09,10.0,East,5.8,-,N/A,,Clear,90,2013-09-16 12:15:00
7:17 AM,68.0,57.2,68,30.09,10.0,East,4.6,-,N/A,,Clear,90,2013-09-16 12:17:00
7:35 AM,68.0,55.4,64,30.10,10.0,East,5.8,-,N/A,,Clear,80,2013-09-16 12:35:00
7:55 AM,68.0,55.4,64,30.10,10.0,Calm,Calm,-,N/A,,Clear,0,2013-09-16 12:55:00
8:15 AM,68.0,55.4,64,30.11,10.0,ENE,4.6,-,N/A,,Clear,70,2013-09-16 13:15:00
8:35 AM,71.6,55.4,57,30.11,10.0,ENE,5.8,-,N/A,,Clear,60,2013-09-16 13:35:00
8:55 AM,73.4,53.6,50,30.11,10.0,ENE,8.1,-,N/A,,Clear,70,2013-09-16 13:55:00
9:15 AM,77.0,55.4,47,30.12,10.0,ENE,6.9,-,N/A,,Clear,70,2013-09-16 14:15:00
9:35 AM,77.0,53.6,44,30.12,10.0,East,6.9,-,N/A,,Clear,80,2013-09-16 14:35:00
9:55 AM,80.6,53.6,39,30.12,10.0,ENE,3.5,-,N/A,,Clear,70,2013-09-16 14:55:00
10:15 AM,82.4,53.6,37,30.12,10.0,NE,3.5,-,N/A,,Clear,50,2013-09-16 15:15:00
10:35 AM,84.2,55.4,37,30.12,10.0,North,4.6,-,N/A,,Clear,10,2013-09-16 15:35:00
10:55 AM,86.0,55.4,35,30.12,10.0,NE,3.5,-,N/A,,Clear,40,2013-09-16 15:55:00
11:15 AM,87.8,57.2,35,30.12,10.0,Calm,Calm,-,N/A,,Clear,0,2013-09-16 16:15:00
11:35 AM,89.6,59.0,36,30.12,10.0,Calm,Calm,-,N/A,,Clear,0,2013-09-16 16:35:00
11:55 AM,89.6,59.0,36,30.12,10.0,NE,5.8,-,N/A,,Clear,50,2013-09-16 16:55:00
12:15 PM,89.6,59.0,36,30.12,10.0,NE,4.6,-,N/A,,Clear,40,2013-09-16 17:15:00
12:35 PM,91.4,59.0,34,30.12,10.0,Calm,Calm,-,N/A,,Clear,0,2013-09-16 17:35:00
12:55 PM,93.2,60.8,34,30.11,10.0,ENE,5.8,-,N/A,,Clear,60,2013-09-16 17:55:00
1:15 PM,95.0,60.8,32,30.10,10.0,North,6.9,-,N/A,,Clear,360,2013-09-16 18:15:00
1:35 PM,93.2,60.8,34,30.10,10.0,East,5.8,-,N/A,,Clear,80,2013-09-16 18:35:00
1:55 PM,93.2,60.8,34,30.09,10.0,North,3.5,-,N/A,,Clear,360,2013-09-16 18:55:00
2:15 PM,96.8,57.2,27,30.07,10.0,Calm,Calm,-,N/A,,Clear,0,2013-09-16 19:15:00
2:35 PM,96.8,59.0,28,30.06,10.0,NNE,4.6,-,N/A,,Clear,30,2013-09-16 19:35:00
2:55 PM,98.6,59.0,27,30.05,10.0,NE,4.6,-,N/A,,Clear,50,2013-09-16 19:55:00
3:15 PM,95.0,59.0,30,30.04,10.0,North,8.1,-,N/A,,Clear,360,2013-09-16 20:15:00
3:35 PM,95.0,59.0,30,30.04,10.0,North,10.4,16.1,N/A,,Clear,10,2013-09-16 20:35:00
3:55 PM,95.0,57.2,28,30.03,10.0,ENE,4.6,-,N/A,,Clear,70,2013-09-16 20:55:00
4:15 PM,96.8,55.4,25,30.02,10.0,NE,6.9,-,N/A,,Clear,50,2013-09-16 21:15:00
4:35 PM,96.8,55.4,25,30.02,10.0,NE,5.8,-,N/A,,Clear,40,2013-09-16 21:35:00
4:55 PM,96.8,55.4,25,30.01,10.0,NE,9.2,-,N/A,,Clear,50,2013-09-16 21:55:00
5:15 PM,96.8,55.4,25,30.01,10.0,ENE,9.2,-,N/A,,Clear,60,2013-09-16 22:15:00
5:35 PM,95.0,55.4,26,30.01,10.0,East,11.5,-,N/A,,Clear,90,2013-09-16 22:35:00
5:55 PM,95.0,55.4,26,30.01,10.0,ENE,10.4,-,N/A,,Clear,70,2013-09-16 22:55:00
6:15 PM,93.2,55.4,28,30.01,10.0,East,6.9,-,N/A,,Clear,90,2013-09-16 23:15:00
6:35 PM,91.4,55.4,29,30.01,10.0,East,4.6,-,N/A,,Clear,80,2013-09-16 23:35:00
6:55 PM,87.8,55.4,33,30.02,10.0,East,4.6,-,N/A,,Clear,80,2013-09-16 23:55:00
7:15 PM,86.0,57.2,37,30.02,10.0,Calm,Calm,-,N/A,,Clear,0,2013-09-17 00:15:00
7:35 PM,84.2,57.2,40,30.02,10.0,East,4.6,-,N/A,,Clear,90,2013-09-17 00:35:00
7:55 PM,82.4,57.2,42,30.03,10.0,East,5.8,-,N/A,,Clear,100,2013-09-17 00:55:00
8:15 PM,82.4,57.2,42,30.04,10.0,East,3.5,-,N/A,,Clear,80,2013-09-17 01:15:00
8:35 PM,80.6,59.0,48,30.04,10.0,ENE,3.5,-,N/A,,Scattered Clouds,60,2013-09-17 01:35:00
8:55 PM,78.8,57.2,47,30.05,10.0,East,4.6,-,N/A,,Clear,80,2013-09-17 01:55:00
9:15 PM,78.8,59.0,51,30.05,10.0,ENE,4.6,-,N/A,,Clear,60,2013-09-17 02:15:00
9:35 PM,78.8,59.0,51,30.06,10.0,ENE,4.6,-,N/A,,Clear,60,2013-09-17 02:35:00
9:55 PM,77.0,59.0,54,30.07,10.0,ENE,4.6,-,N/A,,Clear,70,2013-09-17 02:55:00
10:15 PM,77.0,57.2,50,30.07,10.0,East,6.9,-,N/A,,Clear,80,2013-09-17 03:15:00
10:35 PM,77.0,57.2,50,30.08,10.0,ENE,5.8,-,N/A,,Clear,70,2013-09-17 03:35:00
10:55 PM,77.0,57.2,50,30.08,10.0,ENE,5.8,-,N/A,,Clear,70,2013-09-17 03:55:00
11:15 PM,77.0,57.2,50,30.09,10.0,East,6.9,-,N/A,,Clear,80,2013-09-17 04:15:00
11:35 PM,75.2,57.2,53,30.09,10.0,East,6.9,-,N/A,,Clear,100,2013-09-17 04:35:00
11:55 PM,75.2,57.2,53,30.09,10.0,East,8.1,-,N/A,,Clear,90,2013-09-17 04:55:00